This demonstration page uses our WeatherBlox Daily Observations layout. Learn more.

36.19886, -115.1175

Hourly Observations for July 5, 2019

Temp ( °F °C ) Dew Point ( °F °C ) Humidity (%) Winds ( mph kmh ) Pressure ( in mb ) Visibility ( mi km ) Precip ( " mm )
12:53 am 00:53 Clear 84 28.9 30 -1.1 14 14 Calm 29.8 1009 10 16.09344 0 0
1:53 am 01:53 Clear 78 25.6 33 0.6 19 19 Calm 29.83 1010 10 16.09344 0 0
2:53 am 02:53 Clear 76 24.4 31 -0.6 19 19 N 7 11 29.83 1010 10 16.09344 0 0
3:53 am 03:53 Clear 75 23.9 30 -1.1 19 19 NNW 7 11 29.85 1011 10 16.09344 0 0
4:53 am 04:53 Clear 73 22.8 31 -0.6 21 21 NNW 3 6 29.85 1011 10 16.09344 0 0
5:53 am 05:53 Sunny 72 22.2 31 -0.6 22 22 N 7 11 29.88 1012 10 16.09344 0 0
6:53 am 06:53 Sunny 76 24.4 32 0 20 20 NNW 5 7 29.91 1013 10 16.09344 0 0
7:53 am 07:53 Sunny 84 28.9 31 -0.6 15 15 NNE 7 11 29.91 1013 10 16.09344 0 0
8:53 am 08:53 Sunny 88 31.1 27 -2.8 11 11 NE 6 9 29.91 1013 10 16.09344 0 0
9:53 am 09:53 Sunny 89 31.7 28 -2.2 11 11 Calm 29.91 1013 10 16.09344 0 0
10:53 am 10:53 Sunny 91 32.8 29 -1.7 11 11 ESE 6 9 29.94 1014 10 16.09344 0 0
11:53 am 11:53 Sunny 94 34.4 31 -0.6 11 11 SE 5 7 29.91 1013 10 16.09344 0 0
12:53 pm 12:53 Sunny 95 35 31 -0.6 10 10 SE 3 6 29.91 1013 10 16.09344 0 0
1:53 pm 13:53 Sunny 98 36.7 31 -0.6 9 9 VRB 7 11 29.88 1012 10 16.09344 0 0
2:53 pm 14:53 Sunny 99 37.2 31 -0.6 9 9 E 9 15 29.88 1012 10 16.09344 0 0
3:53 pm 15:53 Sunny 100 37.8 34 1.1 10 10 ESE 12 19 29.85 1011 10 16.09344 0 0
4:53 pm 16:53 Sunny 100 37.8 35 1.7 10 10 E 14 22 29.83 1010 10 16.09344 0 0
5:53 pm 17:53 Sunny 100 37.8 34 1.1 10 10 ENE 16 26 29.83 1010 10 16.09344 0 0
6:53 pm 18:53 Sunny 98 36.7 33 0.6 10 10 ESE 21 33 29.83 1010 10 16.09344 0 0
7:53 pm 19:53 Sunny 97 36.1 31 -0.6 10 10 SE 15 24 29.83 1010 10 16.09344 0 0
8:53 pm 20:53 Clear 94 34.4 30 -1.1 10 10 S 15 24 29.83 1010 10 16.09344 0 0
9:53 pm 21:53 Clear 94 34.4 27 -2.8 9 9 SSW 10 17 29.85 1011 10 16.09344 0 0
10:53 pm 22:53 Clear 89 31.7 29 -1.7 11 11 S 6 9 29.88 1012 10 16.09344 0 0
11:53 pm 23:53 Clear 86 30 30 -1.1 13 13 S 5 7 29.88 1012 10 16.09344 0 0

Powered by AerisWeather